Aswan, Egypt

9:44 PM EET on July 21, 2017 (GMT +0200)
Aswan

Weather History for HESN - September, 2013

Change the Weather History Date:

Saturday, September 21, 2013

  Actual Average Record
Temperature  
Mean Temperature 94 °F -  
Max Temperature 106 °F 95 °F 108 °F (2016)
Min Temperature 82 °F 73 °F 73 °F (2002)
Cooling Degree Days 29    
Growing Degree Days 44 (Base 50)    
Moisture  
Dew Point 48 °F    
Average Humidity 22    
Maximum Humidity 39    
Minimum Humidity 7    
Precipitation  
Precipitation 0.00 in 0.00 in - ()
Sea Level Pressure  
Sea Level Pressure 29.85 in    
Wind  
Wind Speed 11 mph ()    
Max Wind Speed 18 mph    
Max Gust Speed -    
Visibility 6.0 miles    
Events      
Averages and records for this station are not official NWS values.
T = Trace of Precipitation, MM = Missing Value Source: Averaged Metar Reports

Daily Weather History Graph

Daily Weather History Graph

Search for Another Location

Airport or City:

Trip Planner

Search our weather history database for the weather conditions in past years. The results will help you decide how hot, cold, wet, or windy it might be!

Date:

Astronomy

Sep. 21, 2013 Rise Set
Actual Time 5:37 AM EET 5:46 PM EET
Civil Twilight 5:14 AM EET 6:08 PM EET
Nautical Twilight 4:48 AM EET 6:35 PM EET
Astronomical Twilight 4:21 AM EET 7:01 PM EET
Moon 7:04 PM EET 7:16 AM EET
Length of Visible Light 12h 54m
Length of Day
12h 09m
Waning Gibbous, 95% of the Moon is Illuminated
Sep 21
Waning Gibbous
Sep 27
Last Quarter
Oct 5
New
Oct 12
First Quarter
Oct 19
Full

Hourly Weather History & Observations

Time (EET) Temp. Heat Index Dew Point Humidity Pressure Visibility Wind Dir Wind Speed Gust Speed Precip Events Conditions
12:00 AM 89.6 °F - 50.0 °F 26% 29.89 in - North 10.4 mph - N/A   Clear
1:00 AM 89.6 °F 87.3 °F 53.6 °F 29% 29.86 in - North 10.4 mph - N/A   Clear
2:00 AM 87 °F - 54 °F 22% 29.83 in 6 mi North 10.4 mph - -  
2:00 AM 87.8 °F 85.7 °F 53.6 °F 31% 29.86 in - North 10.4 mph - N/A   Clear
3:00 AM 86.0 °F 84.2 °F 53.6 °F 33% 29.86 in - North 11.5 mph - N/A   Clear
4:00 AM 84.2 °F - 51.8 °F 33% 29.86 in - North 8.1 mph - N/A   Clear
5:00 AM 82.4 °F 81.4 °F 53.6 °F 37% 29.86 in - North 9.2 mph - N/A   Clear
6:00 AM 82.4 °F 81.4 °F 53.6 °F 37% 29.89 in - North 10.4 mph - N/A   Clear
7:00 AM 82.4 °F 81.7 °F 55.4 °F 39% 29.89 in - North 11.5 mph - N/A   Clear
8:00 AM 87.8 °F 86.1 °F 55.4 °F 33% 29.89 in - North 16.1 mph - N/A   Clear
9:00 AM 89.6 °F 87.3 °F 53.6 °F 29% 29.92 in - North 16.1 mph - N/A   Clear
10:00 AM 93.2 °F - 51.8 °F 24% 29.92 in - North 17.3 mph - N/A   Clear
11:00 AM 96.8 °F - 51.8 °F 22% 29.89 in - North 13.8 mph - N/A   Clear
12:00 PM 100.4 °F - 48.2 °F 17% 29.86 in - North 12.7 mph - N/A   Clear
1:00 PM 102.2 °F - 46.4 °F 15% 29.83 in - North 16.1 mph - N/A   Clear
2:00 PM 104 °F - 43 °F 7% 29.77 in 6 mi North 12.7 mph - -  
2:00 PM 104.0 °F - 42.8 °F 12% 29.83 in - North 12.7 mph - N/A   Clear
3:00 PM 105.8 °F - 39.2 °F 10% 29.80 in - North 13.8 mph - N/A   Clear
4:00 PM 105.8 °F - 37.4 °F 10% 29.80 in - North 15.0 mph - N/A   Clear
5:00 PM 104.0 °F - 39.2 °F 11% 29.80 in - North 13.8 mph - N/A   Clear
6:00 PM 102.2 °F - 39.2 °F 11% 29.80 in - North 12.7 mph - N/A   Clear
7:00 PM 98.6 °F - 42.8 °F 15% 29.83 in - NNW 9.2 mph - N/A   Clear
8:00 PM 97 °F - 45 °F 9% 29.81 in 6 mi NNW 9.2 mph - -  
8:00 PM 96.8 °F - 44.6 °F 17% 29.83 in - NNW 9.2 mph - N/A   Clear
9:00 PM 95.0 °F - 44.6 °F 18% 29.86 in - NNW 11.5 mph - N/A   Clear
10:00 PM 93.2 °F - 46.4 °F 20% 29.86 in - North 11.5 mph - N/A   Clear
11:00 PM 91.4 °F - 46.4 °F 21% 29.89 in - North 18.4 mph - N/A   Clear